STARLINK-1153, 45080

Orbit data source: Space-Track

STARLINK-1153, 45080 is a payload satellite owned by SpaceX/Seattle (US) in LEO that was launched on Wed, 29 Jan 2020 UTC via an FALCON 9 launch vehicle from the Air Force Eastern Test Range (AFETR). Payload-class satellites include a variety of spacecraft equipped with specific instruments for various scientific and technological missions. These include communications satellites like Starlink; space stations such as the ISS; scientific satellites like the Hubble; Earth observation satellites from companies like Planet Labs, Umbra, and HawkEye 360; GPS; miniature CubeSats for education and research; and military/defense satellites.

Loading next visibility...
Identifier
45080, 2020-006AN
Orbit
LEO
Country
Flag of USUS
Related business
Manufacturer
SpaceX/Seattle
Mission
Operational Commercial Communications
Bus & Motor
STARLINK, Unknown motor
Mass
260 kg wet, ~248 kg dry
Launch date (UTC)
2020-01-29 (6 years ago)
Launch vehicle
FALCON 9
Launch site
Air Force Eastern Test Range (AFETR)
Object type
Payload
Rocket body
Debris
Shape & HBR
Box + 1 Pan, 10.1 m
Radar Cross Section
13.562 m², Large (>1 m²)

Expand to show TLE details & history
Last TLE update: 16 hours ago

TLE from 16 hours ago
0 STARLINK-1153
1 45080U 20006AN  26036.39460806  .00003598  00000-0  13700-3 0  9997
2 45080  53.1579  47.5857 0001292  88.8901 271.2247 15.29343349331930
Epoch: 2026-02-05T09:28Z
TLE epoch observation values (Epoch: 2026-02-05T09:28:14.136Z)
Latitude
-0.00005°
Longitude
129.9793°
Altitude
478.654 km
Speed
7.628 km/s
True Right ascension
03h 10m 20s
True Declination
0° 00' 00"
Sunlit
Object was in daylight at epoch
Visualization orbit readout
Latitude
Unknown
Longitude
Unknown
Altitude
Unknown
Speed
Unknown
Apparent Right ascension
Unknown
Apparent Declination
Unknown
Sunlit
N/A
Visualization observer readout
Local Sidereal Time
03:41:06
Azimuth
Unknown
Elevation
Unknown
Doppler factor
Unknown
Orbital elements
Apogee altitude
478.917 km
Perigee altitude
477.145 km
Semi-major axis
6,856.168 km
Eccentricity
0.00013
Inclination
53.1579°
RAAN
47.5857°
Arg. of periapsis
88.8901°
True anomaly
271.2099°
Mean anomaly
271.2247°
Eccentric anomaly
271.2173°
Mean motion
3.82315 °/min
Orbital period
94.16 mins
BSTAR
0.000137
Loading maneuver chart data...
Computing Atmospheric mass density...
Loading historical data...
Loading historical data...
Loading historical data...
Loading historical data...
Loading historical data...
Loading historical data...
Loading historical data...

Documentation

Showing up to 5 results
|